[[{"header":{"parameterUnit":"m.s-1","parameterCategory":2,"la1":30.2991,"la2":30.254,"lo1":-89.0895,"lo2":-89.0444,"dy":0.0017,"dx":0.0017,"nx":28,"ny":28,"refTime":"2025-01-29T09:00:00:Z","depth":"0","parameterNumber":2,"parameterNumberName":"U-component_of_CURRENTS"},"data":[0,0,0,0,0,0,0,0,0,0,0,0,0,0,0,0,0,0,0,0,0,0,0,0,0,0,0,0,0,0,0,0,0,0,0,0,0,0,0,0,0,0,0,0,0,0,0,0,0,0,0,0,0,0,0,0,0,0,0.0935,0.0935,0,0.0952,0.0952,0.0953,0.0961,0.0961,0.0961,0.0962,0.0974,0.0974,0.0975,0,0,0,0,0,0,0,0,0,0,0,0,0,0.0912,0.0912,0.0935,0.0935,0.0935,0.0952,0.0952,0.0953,0.0961,0.0961,0.0962,0.0962,0.0974,0.0974,0.0975,0,0,0,0,0,0,0,0,0,0,0,0,0,0.0924,0.0912,0.0935,0.0942,0.0943,0.0952,0.0952,0.0953,0.0961,0.0961,0.0962,0.0962,0.0974,0.0974,0.0975,0.0975,0,0,0.0976,0.0976,0,0,0,0,0,0,0,0,0.0924,0.0925,0.0941,0.0942,0.0943,0.0955,0.0949,0.096,0.0961,0.0953,0.0962,0.0962,0.0968,0.0969,0.0971,0.0975,0.0976,0.0976,0.0976,0.0976,0.0976,0,0,0,0,0,0,0,0.0923,0.0924,0.0941,0.0941,0.0942,0.0946,0.0948,0.0951,0.0959,0.0954,0.0955,0.0958,0.0968,0.097,0.0971,0.0976,0.0976,0.0976,0.0976,0.0977,0.1,0.1,0,0,0,0,0,0,0.0922,0.0923,0.094,0.0941,0.0934,0.0947,0.0948,0.0951,0.0959,0.0961,0.0958,0.0959,0.097,0.0971,0.0972,0.0985,0.0976,0.0977,0.0977,0.0999,0.1,0.1,0,0,0,0,0,0,0.0921,0.0923,0.0939,0.0934,0.0936,0.0947,0.0949,0.0951,0.0956,0.0962,0.0964,0.0962,0.097,0.0971,0.0978,0.0985,0.0977,0.0977,0.0999,0.1,0.1,0.1004,0,0,0,0,0,0,0.0921,0.0923,0.0925,0.0933,0.0936,0.0946,0.0949,0.0951,0.0958,0.0959,0.0966,0.0967,0.097,0.0977,0.0978,0.0985,0.0978,0.0998,0.0999,0.1,0.1003,0.1004,0.1005,0,0,0,0,0,0.092,0.0921,0.0925,0.0927,0.0938,0.0947,0.0948,0.0956,0.0958,0.0961,0.0966,0.0967,0.0982,0.0977,0.0979,0.0986,0.0998,0.0999,0.1,0.1003,0.1004,0.1005,0,0,0,0,0,0,0.0912,0.0922,0.0927,0.0931,0.094,0.0949,0.0952,0.0957,0.0963,0.0964,0.0969,0.097,0.098,0.0983,0.0977,0.0996,0.0992,0.0993,0.0994,0.0995,0.0996,0.1002,0.0978,0,0,0,0,0,0.0912,0.0916,0.0926,0.093,0.0934,0.0943,0.0948,0.0953,0.096,0.0963,0.0968,0.0975,0.0984,0.0989,0.0994,0.1002,0.103,0.101,0.1011,0.1012,0.1018,0.1056,0.1062,0.1003,0.1003,0.1003,0,0,0.091,0.0917,0.0918,0.0929,0.0936,0.0942,0.0946,0.0954,0.096,0.0963,0.0971,0.0977,0.0987,0.0997,0.1002,0.1,0.1048,0.1013,0.1013,0.1019,0.1058,0.1064,0.1069,0.1004,0.1004,0.1004,0,0,0.0907,0.0914,0.0916,0.0924,0.0935,0.0942,0.0944,0.0954,0.096,0.0967,0.0975,0.0988,0.0993,0.1008,0.1014,0.1026,0.1051,0.1026,0.1037,0.1075,0.108,0.1085,0.1149,0.1159,0.1027,0.1027,0.1027,0,0.0904,0.0911,0.0918,0.0924,0.0932,0.0941,0.0947,0.0955,0.0965,0.0975,0.097,0.0998,0.1002,0.1028,0.103,0.103,0.1063,0.103,0.1077,0.1082,0.1087,0.1151,0.1163,0.1028,0.1028,0.1028,0.1028,0,0.0904,0.0911,0.0914,0.0925,0.0933,0.094,0.0952,0.096,0.0967,0.0978,0.1001,0.1011,0.1031,0.1033,0.1033,0.1071,0.1089,0.1073,0.1073,0.1093,0.116,0.1172,0.1028,0.1028,0.1028,0.1028,0,0,0.0891,0.091,0.0911,0.092,0.0935,0.0942,0.0955,0.0974,0.0992,0.1,0.1029,0.104,0.1052,0.1061,0.1069,0.1097,0.1162,0.1098,0.11,0.1164,0.1271,0.1384,0.1408,0.1153,0.1154,0.1156,0.1311,0,0.089,0.0902,0.0912,0.0925,0.0934,0.0949,0.0962,0.0981,0.0999,0.1029,0.105,0.1076,0.1061,0.1078,0.1103,0.1147,0.1191,0.1124,0.1241,0.1245,0.1344,0.1424,0.1463,0.1613,0.1323,0.1325,0.1327,0,0.0886,0.0898,0.091,0.0934,0.0939,0.0947,0.0979,0.0994,0.1035,0.1053,0.1084,0.1104,0.1154,0.1133,0.1229,0.1187,0.1232,0.1264,0.127,0.1382,0.1381,0.1543,0.1646,0.1647,0.1345,0.1344,0.1342,0,0.0876,0.0896,0.0907,0.0914,0.0941,0.0951,0.0966,0.1001,0.1028,0.1076,0.1115,0.1157,0.1215,0.125,0.1335,0.1279,0.146,0.1389,0.1539,0.1547,0.161,0.1622,0.173,0.1464,0.1464,0.1464,0.1463,0,0.0871,0.0879,0.0904,0.091,0.0928,0.0948,0.0976,0.0999,0.105,0.1109,0.1131,0.1212,0.1248,0.1355,0.138,0.1541,0.1507,0.1577,0.1605,0.1616,0.1627,0.1652,0.1602,0.1469,0.1468,0.1467,0.1466,0,0.0855,0.0871,0.0885,0.0913,0.0923,0.0935,0.098,0.1008,0.106,0.1143,0.1168,0.1284,0.1442,0.1512,0.1625,0.1648,0.1722,0.181,0.1845,0.1875,0.1978,0.1926,0.1857,0.1787,0.1976,0.198,0.1984,0,0.0847,0.0853,0.0882,0.0895,0.0907,0.0931,0.0955,0.1002,0.1046,0.1207,0.126,0.1447,0.1598,0.1836,0.1928,0.205,0.1909,0.2139,0.2028,0.2037,0.1998,0.1752,0.1676,0.2114,0.2118,0.2121,0.2124,0,0.0834,0.0844,0.0858,0.0886,0.0908,0.0939,0.0984,0.1023,0.1114,0.1216,0.1404,0.1546,0.1828,0.2026,0.2218,0.2261,0.2044,0.2212,0.2199,0.212,0.1878,0.1809,0.1967,0.2153,0.215,0.2148,0.2147,0.2145,0.0824,0.0831,0.0855,0.088,0.0909,0.0956,0.0987,0.1068,0.1172,0.1349,0.149,0.1728,0.2051,0.2344,0.2378,0.2503,0.228,0.246,0.2402,0.2154,0.2065,0.2322,0.2549,0.2548,0.2548,0.2547,0.2547,0,0.0816,0.0831,0.0853,0.0889,0.0922,0.0943,0.1016,0.1068,0.1204,0.1415,0.1598,0.1996,0.2277,0.2481,0.2722,0.2697,0.2441,0.2643,0.2299,0.2217,0.2481,0.2474,0.2723,0.2723,0.2723,0.2723,0.2723,0.2723,0.0814,0.0831,0.0846,0.0895,0.0926,0.0978,0.1023,0.1119,0.1262,0.155,0.1791,0.1992,0.237,0.2729,0.2861,0.2789,0.2497,0.2429,0.2301,0.2538,0.2514,0.249,0.2474,0.2719,0.2719,0.1939,0.1934,0.193]},{"header":{"parameterUnit":"m.s-1","parameterCategory":2,"la1":30.2991,"la2":30.254,"lo1":-89.0895,"lo2":-89.0444,"dy":0.0017,"dx":0.0017,"nx":28,"ny":28,"refTime":"2025-01-29T09:00:00:Z","depth":"0","parameterNumber":3,"parameterNumberName":"V-component_of_CURRENTS"},"data":[0,0,0,0,0,0,0,0,0,0,0,0,0,0,0,0,0,0,0,0,0,0,0,0,0,0,0,0,0,0,0,0,0,0,0,0,0,0,0,0,0,0,0,0,0,0,0,0,0,0,0,0,0,0,0,0,0,0,0.0114,0.0114,0,0.007,0.0069,0.0068,0.004,0.004,0.004,0.004,-0.0008,-0.001,-0.0011,0,0,0,0,0,0,0,0,0,0,0,0,0,0.0161,0.016,0.0115,0.0114,0.0114,0.007,0.0069,0.0068,0.004,0.004,0.004,0.004,-0.0008,-0.0009,-0.0011,0,0,0,0,0,0,0,0,0,0,0,0,0,0.013,0.016,0.0115,0.0095,0.0093,0.007,0.0069,0.0068,0.004,0.004,0.004,0.004,-0.0008,-0.0009,-0.0011,-0.002,0,0,-0.0017,-0.0018,0,0,0,0,0,0,0,0,0.0132,0.0128,0.0098,0.0096,0.0094,0.0061,0.0068,0.0039,0.004,0.0059,0.004,0.004,0.0015,0.0011,0.0002,-0.0022,-0.0024,-0.0017,-0.0018,-0.0019,-0.0019,0,0,0,0,0,0,0,0.0134,0.013,0.0096,0.0098,0.0095,0.0083,0.0079,0.0062,0.0038,0.0058,0.0056,0.0052,0.0014,0.0004,0.0001,-0.0025,-0.0017,-0.0018,-0.002,-0.002,-0.0055,-0.0055,0,0,0,0,0,0,0.0142,0.0132,0.0097,0.0095,0.0114,0.0083,0.0077,0.0071,0.0038,0.0033,0.0052,0.0051,0.0007,0.0003,-0.0001,-0.001,-0.0019,-0.002,-0.0022,-0.0056,-0.0055,-0.0055,0,0,0,0,0,0,0.0143,0.0139,0.0099,0.0113,0.0107,0.0082,0.0075,0.007,0.006,0.0034,0.0029,0.0047,0.0007,0.0002,-0.0015,-0.0012,-0.0021,-0.0023,-0.0056,-0.0056,-0.0055,-0.0029,0,0,0,0,0,0,0.0145,0.014,0.0137,0.0114,0.0107,0.0088,0.0075,0.007,0.0059,0.0056,0.0028,0.0023,0.0006,-0.0012,-0.0017,-0.0015,-0.0024,-0.0056,-0.0056,-0.0055,-0.0031,-0.0028,-0.0027,0,0,0,0,0,0.0146,0.0144,0.0137,0.0133,0.0104,0.0089,0.0084,0.0065,0.0059,0.0055,0.0036,0.0024,-0.0013,-0.0013,-0.0019,-0.0017,-0.0056,-0.0056,-0.0055,-0.0031,-0.0029,-0.0027,0,0,0,0,0,0,0.0163,0.0141,0.0132,0.0123,0.0109,0.0084,0.0078,0.0067,0.0049,0.0047,0.0023,0.0017,0.0004,-0.0009,-0.0009,-0.0026,-0.0036,-0.0036,-0.0015,-0.0013,-0.0011,-0.0008,-0.0026,0,0,0,0,0,0.0166,0.0158,0.0137,0.013,0.0124,0.0102,0.0093,0.0081,0.0063,0.0055,0.0036,0.0017,0.0001,-0.0008,-0.0025,-0.0035,-0.0043,-0.0037,-0.0035,-0.0033,-0.0034,-0.0042,-0.0041,-0.0054,-0.0054,-0.0054,0,0,0.017,0.0158,0.0152,0.0133,0.0119,0.0111,0.0096,0.0085,0.0077,0.0053,0.0038,0.0022,-0.0,-0.0012,-0.0019,-0.0023,-0.0031,-0.0032,-0.0031,-0.0033,-0.0042,-0.004,-0.0039,-0.0054,-0.0054,-0.0054,0,0,0.0176,0.0164,0.0158,0.0148,0.0131,0.0118,0.0117,0.0095,0.0085,0.007,0.0052,0.0038,0.0012,-0.0002,-0.0012,-0.0009,-0.0021,-0.0012,0.0,-0.0008,-0.0007,-0.0006,-0.0004,-0.0004,-0.001,-0.001,-0.001,0,0.0184,0.0171,0.0156,0.015,0.0142,0.0124,0.012,0.0107,0.0083,0.0076,0.0069,0.0034,0.0017,0.0003,0.0004,-0.0005,-0.0008,-0.0007,-0.0005,-0.0005,-0.0004,-0.0003,-0.0002,-0.0009,-0.0009,-0.0009,-0.0009,0,0.0183,0.0175,0.0173,0.0158,0.015,0.0143,0.0127,0.0119,0.0106,0.0092,0.0076,0.0053,0.0034,0.0028,0.0015,0.0011,0.0009,-0.0002,-0.001,-0.0001,-0.0,-0.0,-0.0007,-0.0007,-0.0008,-0.0008,0,0,0.0199,0.0176,0.0176,0.0171,0.0154,0.0148,0.014,0.0127,0.0124,0.0102,0.0098,0.007,0.0059,0.0047,0.0032,0.0025,0.0028,0.0015,0.0014,0.0019,0.0019,0.0035,0.0036,0.0018,0.0018,0.0018,0.0022,0,0.0204,0.0195,0.0182,0.0177,0.0172,0.0158,0.0153,0.014,0.0128,0.012,0.0099,0.0088,0.0066,0.0063,0.005,0.0034,0.0027,0.0028,0.0007,0.0007,0.0021,0.0036,0.0063,0.007,0.0022,0.0022,0.0022,0,0.0208,0.0201,0.0196,0.0186,0.0183,0.0178,0.0171,0.0164,0.015,0.0143,0.0128,0.0114,0.01,0.0082,0.0055,0.0058,0.0039,0.0026,0.0026,0.003,0.0022,0.0051,0.0072,-0.0017,0.0022,0.0022,0.0022,0,0.0226,0.0214,0.021,0.0205,0.0191,0.0188,0.0182,0.017,0.0175,0.016,0.0176,0.0139,0.015,0.0105,0.0083,0.0067,0.0063,0.0035,0.0031,0.0032,0.0045,0.0048,-0.0022,0.0014,0.0014,0.0014,0.0014,0,0.0237,0.0235,0.0217,0.0215,0.0217,0.0202,0.0205,0.0197,0.02,0.0236,0.0192,0.0233,0.0159,0.0153,0.01,0.0079,0.0076,0.0038,0.0034,0.0056,0.006,-0.0026,-0.0086,0.0015,0.0015,0.0014,0.0014,0,0.0256,0.0242,0.024,0.0227,0.0224,0.0226,0.023,0.0239,0.0242,0.0293,0.0299,0.0309,0.0312,0.0239,0.0191,0.0129,0.0036,0.0077,0.0114,0.0115,0.0009,-0.005,-0.0136,-0.0192,0.0058,0.0058,0.0059,0,0.0264,0.0263,0.0254,0.0259,0.0253,0.0253,0.026,0.0257,0.0289,0.0367,0.0411,0.0431,0.0488,0.0408,0.0285,0.0185,0.0083,0.0131,0.0094,0.0011,-0.0058,-0.0117,-0.0163,0.0125,0.0126,0.0127,0.0127,0,0.0282,0.0277,0.0277,0.0288,0.0295,0.0309,0.0332,0.0372,0.0412,0.0495,0.0629,0.0686,0.0618,0.0562,0.0398,0.0303,0.0054,0.0142,0.0043,-0.0021,-0.0077,-0.0134,0.0116,0.0133,0.0133,0.0132,0.0132,0.0132,0.03,0.0305,0.0309,0.0324,0.0339,0.0387,0.0435,0.0508,0.0615,0.0797,0.0819,0.0994,0.0844,0.0638,0.044,0.0141,0.011,0.0066,0.0001,-0.0052,-0.011,0.016,0.0179,0.0178,0.0178,0.0178,0.0178,0,0.0327,0.0332,0.0347,0.0375,0.0417,0.0415,0.0503,0.0603,0.0792,0.0989,0.1143,0.1282,0.1033,0.0753,0.0345,0.0078,-0.0075,-0.0074,-0.0163,-0.0206,0.0034,0.0034,0.0039,0.0039,0.0039,0.0039,0.0039,0.0039,0.0341,0.0362,0.0371,0.0445,0.0478,0.0576,0.0651,0.0832,0.101,0.137,0.16,0.1735,0.1652,0.0695,0.0098,-0.0069,-0.0278,-0.0331,-0.0442,-0.0283,-0.0276,-0.0268,-0.0284,-0.0345,-0.0346,-0.0655,-0.0658,-0.066]}],[{"header":{"parameterUnit":"m.s-1","parameterCategory":2,"la1":30.2991,"la2":30.254,"lo1":-89.0895,"lo2":-89.0444,"dy":0.0017,"dx":0.0017,"nx":28,"ny":28,"refTime":"2025-01-29T09:00:00:Z","depth":"2","parameterNumber":2,"parameterNumberName":"U-component_of_CURRENTS"},"data":[0,0,0,0,0,0,0,0,0,0,0,0,0,0,0,0,0,0,0,0,0,0,0,0,0,0,0,0,0,0,0,0,0,0,0,0,0,0,0,0,0,0,0,0,0,0,0,0,0,0,0,0,0,0,0,0,0,0,0.0942,0.0942,0,0.096,0.096,0.096,0.0969,0.0969,0.0969,0.0969,0.0982,0.0982,0.0982,0,0,0,0,0,0,0,0,0,0,0,0,0,0.0919,0.0919,0.0942,0.0943,0.0943,0.096,0.096,0.096,0.0969,0.0969,0.0969,0.0969,0.0982,0.0982,0.0982,0,0,0,0,0,0,0,0,0,0,0,0,0,0.0931,0.0919,0.0942,0.095,0.0951,0.096,0.096,0.096,0.0969,0.0969,0.0969,0.0969,0.0982,0.0982,0.0982,0.0982,0,0,0.0983,0.0984,0,0,0,0,0,0,0,0,0.0931,0.0932,0.0948,0.0949,0.095,0.0963,0.0957,0.0968,0.0969,0.0961,0.0969,0.0969,0.0975,0.0976,0.0978,0.0983,0.0984,0.0984,0.0984,0.0984,0.0984,0,0,0,0,0,0,0,0.093,0.0931,0.0948,0.0949,0.095,0.0954,0.0955,0.0959,0.0967,0.0962,0.0963,0.0966,0.0976,0.0978,0.0979,0.0984,0.0984,0.0984,0.0984,0.0984,0.1007,0.1008,0,0,0,0,0,0,0.0929,0.0931,0.0948,0.0949,0.0942,0.0954,0.0956,0.0958,0.0967,0.0969,0.0966,0.0966,0.0977,0.0978,0.0979,0.0993,0.0984,0.0984,0.0985,0.1007,0.1007,0.1008,0,0,0,0,0,0,0.0929,0.093,0.0947,0.0941,0.0944,0.0954,0.0957,0.0959,0.0964,0.097,0.0972,0.097,0.0977,0.0979,0.0985,0.0993,0.0984,0.0985,0.1007,0.1007,0.1008,0.1011,0,0,0,0,0,0,0.0928,0.093,0.0932,0.0941,0.0944,0.0954,0.0957,0.0959,0.0966,0.0966,0.0974,0.0975,0.0978,0.0985,0.0986,0.0993,0.0985,0.1006,0.1007,0.1007,0.1011,0.1012,0.1013,0,0,0,0,0,0.0927,0.0928,0.0932,0.0934,0.0946,0.0955,0.0956,0.0964,0.0966,0.0968,0.0974,0.0975,0.099,0.0985,0.0986,0.0994,0.1006,0.1007,0.1007,0.101,0.1012,0.1013,0,0,0,0,0,0,0.092,0.093,0.0934,0.0939,0.0947,0.0956,0.096,0.0965,0.0971,0.0972,0.0977,0.0978,0.0988,0.099,0.0985,0.1003,0.0999,0.1,0.1001,0.1003,0.1004,0.1009,0.0985,0,0,0,0,0,0.0919,0.0923,0.0934,0.0938,0.0942,0.0951,0.0956,0.0961,0.0968,0.0971,0.0975,0.0983,0.0992,0.0996,0.1002,0.101,0.1037,0.1017,0.1018,0.1019,0.1025,0.1063,0.1069,0.1011,0.1011,0.1011,0,0,0.0917,0.0924,0.0926,0.0937,0.0943,0.095,0.0954,0.0962,0.0968,0.0971,0.0979,0.0985,0.0994,0.1005,0.1009,0.1008,0.1055,0.102,0.1021,0.1026,0.1065,0.107,0.1076,0.1011,0.1011,0.1011,0,0,0.0914,0.0921,0.0924,0.0931,0.0943,0.095,0.0952,0.0962,0.0968,0.0975,0.0982,0.0995,0.1001,0.1015,0.1022,0.1033,0.1058,0.1033,0.1044,0.1081,0.1087,0.1091,0.1155,0.1165,0.1035,0.1035,0.1035,0,0.0911,0.0918,0.0926,0.0932,0.094,0.0949,0.0955,0.0962,0.0973,0.0983,0.0978,0.1005,0.1009,0.1035,0.1037,0.1037,0.1069,0.1037,0.1083,0.1089,0.1094,0.1157,0.1168,0.1035,0.1035,0.1035,0.1035,0,0.0912,0.0919,0.0922,0.0933,0.094,0.0948,0.096,0.0968,0.0975,0.0986,0.1009,0.1018,0.1038,0.104,0.104,0.1078,0.1095,0.108,0.108,0.11,0.1165,0.1177,0.1036,0.1035,0.1035,0.1035,0,0,0.0898,0.0918,0.0919,0.0928,0.0943,0.095,0.0962,0.0981,0.0999,0.1007,0.1036,0.1047,0.1058,0.1067,0.1075,0.1103,0.1168,0.1105,0.1106,0.1169,0.1275,0.1384,0.1408,0.1159,0.116,0.1161,0.1315,0,0.0897,0.091,0.092,0.0933,0.0941,0.0957,0.0969,0.0988,0.1006,0.1035,0.1056,0.1082,0.1067,0.1084,0.1108,0.1153,0.1196,0.1129,0.1246,0.125,0.1345,0.1424,0.126,0.1392,0.1326,0.1328,0.133,0,0.0894,0.0905,0.0917,0.0941,0.0947,0.0954,0.0986,0.1,0.104,0.1058,0.1088,0.1109,0.1159,0.1137,0.1233,0.1191,0.1236,0.1268,0.1274,0.1383,0.1381,0.1357,0.1416,0.135,0.1348,0.1347,0.1345,0,0.0883,0.0903,0.0914,0.0921,0.0948,0.0958,0.0973,0.1006,0.1033,0.108,0.1119,0.1161,0.1218,0.1253,0.1337,0.1282,0.1461,0.1391,0.1537,0.1546,0.1436,0.1433,0.1466,0.1466,0.1465,0.1465,0.1465,0,0.0878,0.0886,0.0911,0.0916,0.0935,0.0954,0.0981,0.1003,0.1054,0.1112,0.1134,0.1214,0.125,0.1356,0.1381,0.154,0.1507,0.1575,0.1603,0.1437,0.1434,0.1405,0.1395,0.1471,0.1469,0.1468,0.1467,0,0.0861,0.0878,0.0892,0.0919,0.0929,0.0941,0.0984,0.1012,0.1062,0.1145,0.117,0.1284,0.1441,0.1511,0.1623,0.1645,0.1743,0.1804,0.1637,0.1644,0.1781,0.1769,0.1956,0.1962,0.1966,0.197,0.1973,0,0.0854,0.086,0.0888,0.0901,0.0912,0.0936,0.0959,0.1005,0.1049,0.1208,0.1261,0.1445,0.1591,0.1826,0.1875,0.1984,0.1946,0.1915,0.1778,0.1828,0.1836,0.1817,0.18,0.1626,0.1626,0.1626,0.1626,0,0.084,0.085,0.0864,0.0891,0.0913,0.0943,0.0987,0.1025,0.1115,0.1215,0.1401,0.1538,0.1776,0.1859,0.203,0.204,0.1875,0.1928,0.2022,0.1553,0.1537,0.1537,0.1527,0.1626,0.1626,0.1626,0.1626,0.1626,0.083,0.0836,0.086,0.0885,0.0913,0.0959,0.099,0.1063,0.1163,0.132,0.1461,0.1635,0.1738,0.194,0.1933,0.1913,0.2028,0.1912,0.1901,0.1893,0.1854,0.1849,0.1992,0.1993,0.1995,0.1997,0.1998,0,0.0819,0.0836,0.0858,0.0893,0.0922,0.0946,0.1018,0.106,0.1184,0.1344,0.1502,0.1525,0.1647,0.1728,0.1711,0.1765,0.161,0.1688,0.1448,0.1455,0.1459,0.1384,0.1403,0.1401,0.1398,0.1396,0,0,0.0817,0.0832,0.0848,0.0893,0.0925,0.0971,0.1016,0.1092,0.1191,0.1319,0.1412,0.16,0.1723,0.1541,0.1542,0.1473,0.1421,0.1407,0.1898,0.1624,0.1623,0.1629,0.1533,0,0,0,0,0]},{"header":{"parameterUnit":"m.s-1","parameterCategory":2,"la1":30.2991,"la2":30.254,"lo1":-89.0895,"lo2":-89.0444,"dy":0.0017,"dx":0.0017,"nx":28,"ny":28,"refTime":"2025-01-29T09:00:00:Z","depth":"2","parameterNumber":3,"parameterNumberName":"V-component_of_CURRENTS"},"data":[0,0,0,0,0,0,0,0,0,0,0,0,0,0,0,0,0,0,0,0,0,0,0,0,0,0,0,0,0,0,0,0,0,0,0,0,0,0,0,0,0,0,0,0,0,0,0,0,0,0,0,0,0,0,0,0,0,0,0.0041,0.0041,0,-0.0004,-0.0004,-0.0005,-0.0032,-0.0032,-0.0032,-0.0032,-0.0079,-0.0081,-0.0082,0,0,0,0,0,0,0,0,0,0,0,0,0,0.0088,0.0088,0.0041,0.0041,0.004,-0.0004,-0.0004,-0.0005,-0.0032,-0.0032,-0.0032,-0.0032,-0.0079,-0.008,-0.0082,0,0,0,0,0,0,0,0,0,0,0,0,0,0.0057,0.0087,0.0041,0.0023,0.002,-0.0004,-0.0004,-0.0005,-0.0032,-0.0032,-0.0032,-0.0032,-0.0078,-0.008,-0.0082,-0.0093,0,0,-0.0088,-0.0089,0,0,0,0,0,0,0,0,0.0059,0.0055,0.0026,0.0024,0.0021,-0.0011,-0.0005,-0.0034,-0.0032,-0.0013,-0.0032,-0.0032,-0.0056,-0.006,-0.007,-0.0095,-0.0097,-0.0088,-0.0089,-0.009,-0.009,0,0,0,0,0,0,0,0.0061,0.0057,0.0023,0.0025,0.0023,0.0011,0.0006,-0.0011,-0.0034,-0.0014,-0.0016,-0.002,-0.0058,-0.0068,-0.0071,-0.0098,-0.0088,-0.009,-0.0091,-0.0091,-0.0128,-0.0127,0,0,0,0,0,0,0.0069,0.0059,0.0024,0.0021,0.0042,0.001,0.0005,-0.0001,-0.0034,-0.0039,-0.002,-0.0021,-0.0064,-0.0069,-0.0073,-0.0081,-0.009,-0.0092,-0.0093,-0.0128,-0.0128,-0.0127,0,0,0,0,0,0,0.0071,0.0067,0.0026,0.004,0.0034,0.001,0.0002,-0.0002,-0.0012,-0.0038,-0.0043,-0.0024,-0.0065,-0.007,-0.0086,-0.0083,-0.0092,-0.0094,-0.0128,-0.0128,-0.0128,-0.0101,0,0,0,0,0,0,0.0072,0.0067,0.0065,0.0041,0.0034,0.0015,0.0002,-0.0003,-0.0013,-0.0015,-0.0043,-0.0048,-0.0065,-0.0083,-0.0088,-0.0086,-0.0096,-0.0128,-0.0128,-0.0128,-0.0102,-0.01,-0.0098,0,0,0,0,0,0.0074,0.0072,0.0065,0.006,0.0031,0.0015,0.001,-0.0008,-0.0013,-0.0017,-0.0035,-0.0047,-0.0085,-0.0085,-0.009,-0.0088,-0.0128,-0.0128,-0.0128,-0.0103,-0.01,-0.0098,0,0,0,0,0,0,0.0091,0.0068,0.006,0.0051,0.0036,0.0011,0.0006,-0.0005,-0.0023,-0.0025,-0.0048,-0.0054,-0.0067,-0.0081,-0.008,-0.0097,-0.0107,-0.0108,-0.0086,-0.0084,-0.0082,-0.0078,-0.0097,0,0,0,0,0,0.0094,0.0085,0.0064,0.0057,0.0051,0.0029,0.0021,0.0009,-0.0009,-0.0017,-0.0036,-0.0055,-0.0071,-0.0079,-0.0097,-0.0107,-0.0114,-0.0108,-0.0106,-0.0104,-0.0105,-0.0113,-0.0111,-0.0126,-0.0126,-0.0126,0,0,0.0098,0.0085,0.008,0.006,0.0046,0.0038,0.0024,0.0012,0.0005,-0.0019,-0.0034,-0.005,-0.0072,-0.0084,-0.0091,-0.0095,-0.0102,-0.0104,-0.0102,-0.0104,-0.0112,-0.0111,-0.0109,-0.0126,-0.0126,-0.0126,0,0,0.0104,0.0092,0.0086,0.0076,0.0059,0.0046,0.0045,0.0023,0.0013,-0.0002,-0.0019,-0.0033,-0.0059,-0.0073,-0.0083,-0.008,-0.0092,-0.0084,-0.007,-0.0078,-0.0077,-0.0076,-0.0074,-0.0073,-0.0081,-0.0081,-0.0081,0,0.0112,0.0099,0.0083,0.0077,0.007,0.0052,0.0047,0.0035,0.0011,0.0005,-0.0002,-0.0036,-0.0054,-0.0067,-0.0066,-0.0076,-0.0079,-0.0077,-0.0075,-0.0074,-0.0074,-0.0072,-0.0072,-0.008,-0.008,-0.008,-0.008,0,0.0111,0.0103,0.01,0.0085,0.0077,0.0071,0.0054,0.0047,0.0035,0.0021,0.0007,-0.0017,-0.0036,-0.0041,-0.0055,-0.0059,-0.0061,-0.0071,-0.008,-0.007,-0.007,-0.0069,-0.0078,-0.0079,-0.0079,-0.0079,0,0,0.0127,0.0104,0.0103,0.0099,0.0082,0.0076,0.0068,0.0055,0.0053,0.0032,0.0029,0.0001,-0.0009,-0.0021,-0.0036,-0.0042,-0.0039,-0.0053,-0.0054,-0.0048,-0.0047,-0.0035,-0.0034,-0.0048,-0.0048,-0.0048,-0.0044,0,0.0132,0.0123,0.0109,0.0105,0.01,0.0086,0.0081,0.0069,0.0058,0.0051,0.0031,0.0021,-0.0001,-0.0004,-0.0016,-0.0033,-0.0039,-0.0039,-0.0059,-0.006,-0.0049,-0.0034,-0.0096,-0.0096,-0.0044,-0.0044,-0.0044,0,0.0137,0.0129,0.0124,0.0114,0.0111,0.0107,0.0101,0.0094,0.0082,0.0075,0.0062,0.0048,0.0035,0.0017,-0.0009,-0.0007,-0.0025,-0.0039,-0.004,-0.0039,-0.0048,-0.01,-0.0098,-0.0044,-0.0044,-0.0044,-0.0044,0,0.0155,0.0142,0.0138,0.0134,0.012,0.0118,0.0112,0.0101,0.0107,0.0094,0.011,0.0075,0.0085,0.0042,0.0019,0.0003,-0.0002,-0.0029,-0.0036,-0.0035,-0.0098,-0.0102,-0.0048,-0.0048,-0.0048,-0.0048,-0.0048,0,0.0166,0.0164,0.0147,0.0145,0.0148,0.0132,0.0137,0.013,0.0134,0.0169,0.0127,0.0167,0.0095,0.0088,0.0036,0.0013,0.0011,-0.0029,-0.0033,-0.0088,-0.0092,-0.0059,-0.006,-0.0048,-0.0048,-0.0048,-0.0048,0,0.0185,0.0172,0.017,0.0157,0.0155,0.0158,0.0162,0.0172,0.0176,0.0227,0.0233,0.0242,0.0243,0.0171,0.0124,0.0061,0.0016,0.0007,-0.0044,-0.0055,-0.0021,-0.0021,-0.0015,-0.0015,-0.0014,-0.0014,-0.0014,0,0.0194,0.0192,0.0184,0.019,0.0184,0.0186,0.0193,0.0191,0.0222,0.0299,0.0341,0.0359,0.0406,0.0324,0.0173,0.0065,0.0075,-0.0036,-0.0084,-0.0013,-0.0018,-0.0019,-0.0019,-0.0157,-0.0158,-0.0158,-0.0159,0,0.0212,0.0207,0.0207,0.022,0.0227,0.024,0.0263,0.0303,0.0342,0.0415,0.0544,0.0592,0.0496,0.0373,0.0199,0.0104,-0.0035,-0.0052,0.0029,-0.0146,-0.0144,-0.0149,-0.0146,-0.0166,-0.0165,-0.0165,-0.0164,-0.0164,0.023,0.0235,0.0239,0.0256,0.027,0.0317,0.0365,0.0405,0.0498,0.0619,0.0673,0.0743,0.057,0.034,0.0153,-0.007,-0.0039,-0.0119,-0.0119,-0.0117,-0.0124,-0.0121,-0.014,-0.0139,-0.0138,-0.0138,-0.0137,0,0.0243,0.0263,0.0277,0.0305,0.0329,0.0345,0.0431,0.047,0.0604,0.071,0.081,0.0671,0.0529,0.0344,-0.0008,-0.0185,-0.0247,-0.0231,-0.0276,-0.0269,-0.0262,-0.0278,-0.0334,-0.0334,-0.0335,-0.0336,0,0,0.0253,0.0268,0.0277,0.034,0.0385,0.0439,0.0511,0.0583,0.0657,0.0753,0.0814,0.0832,0.0621,0.0345,0.0062,-0.0127,-0.0156,-0.018,-0.0012,-0.003,-0.002,-0.0197,-0.0213,0,0,0,0,0]}],[{"header":{"parameterUnit":"m.s-1","parameterCategory":2,"la1":30.2991,"la2":30.254,"lo1":-89.0895,"lo2":-89.0444,"dy":0.0017,"dx":0.0017,"nx":28,"ny":28,"refTime":"2025-01-29T09:00:00:Z","depth":"4","parameterNumber":2,"parameterNumberName":"U-component_of_CURRENTS"},"data":[0,0,0,0,0,0,0,0,0,0,0,0,0,0,0,0,0,0,0,0,0,0,0,0,0,0,0,0,0,0,0,0,0,0,0,0,0,0,0,0,0,0,0,0,0,0,0,0,0,0,0,0,0,0,0,0,0,0,0.0759,0.0759,0,0.0789,0.0789,0.079,0.0817,0.0817,0.0818,0.0818,0.0854,0.0855,0.0855,0,0,0,0,0,0,0,0,0,0,0,0,0,0.0719,0.072,0.0759,0.0759,0.076,0.0789,0.0789,0.079,0.0817,0.0817,0.0818,0.0818,0.0854,0.0855,0.0856,0,0,0,0,0,0,0,0,0,0,0,0,0,0.0741,0.072,0.0759,0.0777,0.0779,0.0789,0.0789,0.079,0.0817,0.0817,0.0818,0.0818,0.0854,0.0855,0.0856,0.0849,0,0,0.0858,0.0859,0,0,0,0,0,0,0,0,0.074,0.0742,0.0774,0.0776,0.0778,0.0801,0.0789,0.081,0.0817,0.0802,0.0818,0.0819,0.0837,0.0839,0.0842,0.0851,0.0853,0.0858,0.0859,0.0859,0.086,0,0,0,0,0,0,0,0.0738,0.0741,0.077,0.0775,0.0777,0.0782,0.0786,0.0793,0.0815,0.0803,0.0805,0.081,0.0838,0.0842,0.0844,0.0853,0.0858,0.0859,0.086,0.086,0.0901,0.0901,0,0,0,0,0,0,0.0735,0.074,0.0769,0.0771,0.0761,0.0783,0.0787,0.0792,0.0815,0.0819,0.0809,0.0811,0.084,0.0842,0.0845,0.0876,0.0859,0.086,0.0861,0.09,0.0901,0.0902,0,0,0,0,0,0,0.0735,0.0738,0.0768,0.0756,0.0761,0.0783,0.0789,0.0792,0.0811,0.082,0.0824,0.0826,0.084,0.0844,0.0864,0.0877,0.0861,0.0861,0.09,0.0901,0.0901,0.0915,0,0,0,0,0,0,0.0733,0.0737,0.0748,0.0756,0.0761,0.0783,0.0788,0.0793,0.0812,0.0815,0.0835,0.0838,0.0841,0.0862,0.0864,0.0878,0.0862,0.0899,0.09,0.0901,0.0914,0.0917,0.0919,0,0,0,0,0,0.0732,0.0741,0.0748,0.0752,0.0772,0.0783,0.0787,0.0803,0.0813,0.0822,0.0836,0.0838,0.087,0.0863,0.0866,0.088,0.0899,0.09,0.0901,0.0913,0.0916,0.0919,0,0,0,0,0,0,0.073,0.0745,0.0753,0.0767,0.0779,0.0789,0.0802,0.081,0.0829,0.0836,0.0844,0.0848,0.0869,0.0872,0.0864,0.0895,0.0885,0.0887,0.0894,0.0897,0.0899,0.0898,0.0863,0,0,0,0,0,0.0733,0.0746,0.0757,0.0771,0.0778,0.0792,0.0802,0.0812,0.0826,0.0835,0.0848,0.0862,0.0873,0.0884,0.0892,0.0909,0.0925,0.092,0.0922,0.0924,0.0925,0.0956,0.0961,0.0906,0.0906,0.0906,0,0,0.0736,0.0747,0.0755,0.0772,0.0784,0.0794,0.08,0.0818,0.0829,0.0835,0.086,0.0869,0.0878,0.0897,0.0907,0.0904,0.0952,0.0926,0.0927,0.0927,0.0958,0.0964,0.0968,0.0907,0.0906,0.0906,0,0,0.0743,0.0759,0.0769,0.078,0.08,0.0806,0.0814,0.083,0.0844,0.0862,0.087,0.0889,0.0906,0.0917,0.0923,0.0943,0.0959,0.0949,0.0963,0.0993,0.0998,0.1002,0.1043,0.1051,0.0953,0.0953,0.0953,0,0.0747,0.0762,0.0774,0.0786,0.0797,0.0812,0.0823,0.0836,0.0858,0.0869,0.0873,0.0906,0.0915,0.0939,0.0946,0.0948,0.0972,0.0951,0.0996,0.1,0.1005,0.1045,0.1054,0.0954,0.0954,0.0954,0.0953,0,0.0755,0.0773,0.0781,0.0799,0.0812,0.0826,0.084,0.0857,0.0873,0.0885,0.0915,0.0928,0.0949,0.0956,0.0956,0.0992,0.1002,0.0993,0.0989,0.1011,0.1053,0.1061,0.0955,0.0955,0.0954,0.0954,0,0,0.0746,0.078,0.0784,0.0797,0.0821,0.083,0.0851,0.0872,0.089,0.0913,0.0939,0.0958,0.0971,0.0979,0.0989,0.1015,0.1068,0.1019,0.102,0.106,0.115,0.1098,0.1103,0.1069,0.1071,0.1072,0.1172,0,0.075,0.0775,0.079,0.0813,0.0825,0.0845,0.0861,0.0883,0.0905,0.0934,0.0957,0.0984,0.0979,0.0996,0.1021,0.1056,0.109,0.1043,0.1123,0.1125,0.1076,0.111,0.1076,0.1179,0.1181,0.1182,0.1183,0,0.0749,0.0768,0.0791,0.0822,0.083,0.0844,0.0875,0.0892,0.0931,0.095,0.0982,0.1003,0.1049,0.1038,0.1115,0.1088,0.1121,0.1146,0.115,0.11,0.1088,0.1149,0.1199,0.1198,0.1197,0.1196,0.1195,0,0.0731,0.0766,0.0787,0.0798,0.0833,0.0847,0.0865,0.0898,0.092,0.0967,0.0999,0.1041,0.1088,0.1122,0.1182,0.1152,0.1274,0.1237,0.1224,0.1222,0.1232,0.1226,0.1292,0.1291,0.1291,0.1291,0.1291,0,0.072,0.0738,0.0783,0.0792,0.0815,0.0841,0.0867,0.0891,0.0935,0.0975,0.1009,0.106,0.1114,0.1188,0.121,0.1258,0.1302,0.1236,0.1243,0.1238,0.1231,0.124,0.1232,0.1295,0.1294,0.1293,0.1293,0,0.0692,0.0724,0.0749,0.0792,0.0807,0.0821,0.0866,0.0886,0.0934,0.0992,0.1015,0.1101,0.1195,0.1255,0.1339,0.1306,0.1345,0.1354,0.1377,0.1383,0.1263,0.1256,0.1324,0.1323,0.1322,0.1321,0.132,0,0.0678,0.069,0.0743,0.076,0.0781,0.0809,0.083,0.0876,0.0905,0.1019,0.1051,0.1168,0.1225,0.1313,0.136,0.1408,0.1392,0.1394,0.1284,0.1266,0.1266,0.126,0.1254,0.1319,0.1319,0.1319,0.1318,0,0.0649,0.0675,0.0698,0.0736,0.0763,0.0789,0.0828,0.0845,0.0918,0.0978,0.1074,0.1128,0.1243,0.1297,0.1361,0.1382,0.1369,0.1383,0.1383,0.1281,0.1261,0.1261,0.1256,0.1315,0.1316,0.1316,0.1316,0,0.0628,0.0638,0.0678,0.0704,0.0742,0.0766,0.0784,0.0837,0.0874,0.0995,0.1038,0.1163,0.1256,0.1289,0.1345,0.1365,0.1321,0.1249,0.1255,0.1259,0.1186,0.1148,0.1184,0,0,0,0,0,0.0603,0.0617,0.0644,0.0674,0.0712,0.0739,0.0788,0.0811,0.0889,0.094,0.0983,0.1085,0.1166,0.1224,0.1231,0.1297,0.1316,0.1295,0.1234,0.1298,0.1302,0.1219,0,0,0,0,0,0,0.0588,0.0616,0.0631,0.0649,0.0668,0.0706,0.0739,0.079,0.0815,0.0904,0.0962,0.1023,0.1123,0.1172,0.1219,0.1233,0.117,0.1363,0.136,0.1296,0.1299,0.1302,0.1218,0,0,0,0,0]},{"header":{"parameterUnit":"m.s-1","parameterCategory":2,"la1":30.2991,"la2":30.254,"lo1":-89.0895,"lo2":-89.0444,"dy":0.0017,"dx":0.0017,"nx":28,"ny":28,"refTime":"2025-01-29T09:00:00:Z","depth":"4","parameterNumber":3,"parameterNumberName":"V-component_of_CURRENTS"},"data":[0,0,0,0,0,0,0,0,0,0,0,0,0,0,0,0,0,0,0,0,0,0,0,0,0,0,0,0,0,0,0,0,0,0,0,0,0,0,0,0,0,0,0,0,0,0,0,0,0,0,0,0,0,0,0,0,0,0,-0.0321,-0.0322,0,-0.036,-0.0361,-0.0361,-0.0386,-0.0386,-0.0386,-0.0386,-0.0422,-0.0423,-0.0424,0,0,0,0,0,0,0,0,0,0,0,0,0,-0.0279,-0.028,-0.0321,-0.0322,-0.0322,-0.036,-0.0361,-0.0361,-0.0386,-0.0386,-0.0386,-0.0386,-0.0422,-0.0423,-0.0424,0,0,0,0,0,0,0,0,0,0,0,0,0,-0.0306,-0.028,-0.0321,-0.0339,-0.0341,-0.036,-0.0361,-0.0361,-0.0386,-0.0386,-0.0386,-0.0386,-0.0422,-0.0423,-0.0424,-0.0429,0,0,-0.0428,-0.0429,0,0,0,0,0,0,0,0,-0.0304,-0.0307,-0.0336,-0.0338,-0.034,-0.0368,-0.0359,-0.0384,-0.0386,-0.0369,-0.0386,-0.0386,-0.0404,-0.0407,-0.0414,-0.0431,-0.0432,-0.0428,-0.0429,-0.043,-0.043,0,0,0,0,0,0,0,-0.0302,-0.0306,-0.0337,-0.0336,-0.0339,-0.0348,-0.0352,-0.0364,-0.0385,-0.037,-0.0372,-0.0376,-0.0405,-0.0413,-0.0415,-0.0433,-0.0428,-0.043,-0.043,-0.0431,-0.045,-0.045,0,0,0,0,0,0,-0.0296,-0.0304,-0.0336,-0.0338,-0.0322,-0.0349,-0.0353,-0.0359,-0.0385,-0.0389,-0.0376,-0.0377,-0.041,-0.0413,-0.0416,-0.0416,-0.043,-0.0431,-0.0432,-0.0451,-0.045,-0.045,0,0,0,0,0,0,-0.0295,-0.0299,-0.0334,-0.0322,-0.0327,-0.0349,-0.0356,-0.036,-0.0371,-0.0389,-0.0393,-0.0383,-0.0411,-0.0414,-0.0427,-0.0418,-0.0432,-0.0433,-0.0451,-0.045,-0.045,-0.042,0,0,0,0,0,0,-0.0294,-0.0298,-0.0303,-0.0321,-0.0327,-0.0346,-0.0356,-0.036,-0.0373,-0.0375,-0.0397,-0.04,-0.0411,-0.0425,-0.0428,-0.042,-0.0434,-0.0451,-0.0451,-0.045,-0.0421,-0.0419,-0.0416,0,0,0,0,0,-0.0292,-0.0297,-0.0303,-0.0307,-0.0332,-0.0346,-0.035,-0.0366,-0.0373,-0.0377,-0.0391,-0.04,-0.0424,-0.0426,-0.043,-0.0422,-0.0451,-0.0451,-0.045,-0.0422,-0.0419,-0.0416,0,0,0,0,0,0,-0.0282,-0.03,-0.0307,-0.0317,-0.033,-0.035,-0.0357,-0.0367,-0.0382,-0.0384,-0.04,-0.0405,-0.0411,-0.0422,-0.0424,-0.0426,-0.0438,-0.0438,-0.0415,-0.0412,-0.041,-0.0397,-0.0435,0,0,0,0,0,-0.0281,-0.0289,-0.0306,-0.0314,-0.0321,-0.0339,-0.0347,-0.0357,-0.0372,-0.0379,-0.0392,-0.0404,-0.0411,-0.0416,-0.0427,-0.0431,-0.0432,-0.0427,-0.0424,-0.0422,-0.0414,-0.0404,-0.0399,-0.0448,-0.0448,-0.0448,0,0,-0.0279,-0.029,-0.0295,-0.0313,-0.0325,-0.033,-0.0345,-0.0357,-0.0357,-0.038,-0.0387,-0.0399,-0.0411,-0.0414,-0.0417,-0.0422,-0.0411,-0.0421,-0.0419,-0.0412,-0.0403,-0.0398,-0.0393,-0.0448,-0.0448,-0.0448,0,0,-0.0277,-0.029,-0.0295,-0.0303,-0.0319,-0.0327,-0.033,-0.0348,-0.0354,-0.0362,-0.0374,-0.0378,-0.0397,-0.0396,-0.04,-0.039,-0.0399,-0.0397,-0.0372,-0.0362,-0.0357,-0.0353,-0.0354,-0.035,-0.0393,-0.0393,-0.0393,0,-0.0274,-0.0282,-0.0298,-0.0302,-0.0305,-0.0324,-0.0323,-0.0331,-0.035,-0.0345,-0.036,-0.0369,-0.0384,-0.0372,-0.0371,-0.0382,-0.0384,-0.0382,-0.0357,-0.0353,-0.035,-0.0352,-0.0348,-0.0391,-0.0392,-0.0392,-0.0392,0,-0.0274,-0.0279,-0.0282,-0.029,-0.0295,-0.03,-0.0308,-0.031,-0.0318,-0.0322,-0.0317,-0.0334,-0.0335,-0.0341,-0.0356,-0.0336,-0.0348,-0.0356,-0.0363,-0.0343,-0.0346,-0.0343,-0.0389,-0.039,-0.039,-0.0391,0,0,-0.0269,-0.0279,-0.028,-0.0277,-0.0288,-0.0289,-0.0284,-0.028,-0.0265,-0.0282,-0.0261,-0.0278,-0.0284,-0.0288,-0.0301,-0.0296,-0.0281,-0.0316,-0.0316,-0.0313,-0.0266,-0.0304,-0.0304,-0.0285,-0.0285,-0.0284,-0.028,0,-0.0263,-0.0263,-0.0269,-0.0262,-0.026,-0.0265,-0.0253,-0.0249,-0.0247,-0.0232,-0.0239,-0.0232,-0.0263,-0.0261,-0.026,-0.0276,-0.0271,-0.0282,-0.0289,-0.0289,-0.0322,-0.0301,-0.0281,-0.0278,-0.0277,-0.0277,-0.0277,0,-0.026,-0.0259,-0.0252,-0.0238,-0.0237,-0.0232,-0.0207,-0.02,-0.0181,-0.0177,-0.0168,-0.0176,-0.0173,-0.0201,-0.021,-0.0217,-0.0238,-0.0252,-0.0252,-0.0293,-0.0321,-0.0301,-0.0271,-0.0271,-0.0272,-0.0272,-0.0272,0,-0.0247,-0.0244,-0.0235,-0.0234,-0.0224,-0.0213,-0.0203,-0.0183,-0.0162,-0.0139,-0.012,-0.0121,-0.0118,-0.0139,-0.0185,-0.0192,-0.0198,-0.0208,-0.0259,-0.0262,-0.0243,-0.0247,-0.0205,-0.0205,-0.0205,-0.0205,-0.0205,0,-0.0236,-0.023,-0.0228,-0.0224,-0.02,-0.0197,-0.0164,-0.0151,-0.0119,-0.0083,-0.0092,-0.0069,-0.0102,-0.0117,-0.016,-0.0206,-0.0179,-0.0248,-0.0259,-0.0232,-0.0235,-0.0241,-0.0245,-0.0205,-0.0205,-0.0205,-0.0205,0,-0.0227,-0.0228,-0.0217,-0.0204,-0.0197,-0.018,-0.0145,-0.0116,-0.009,-0.0041,-0.0032,-0.0024,-0.0047,-0.0092,-0.0126,-0.0173,-0.0214,-0.0237,-0.021,-0.0221,-0.0289,-0.0292,-0.0278,-0.0279,-0.028,-0.0281,-0.0282,0,-0.0221,-0.0218,-0.0204,-0.0193,-0.0187,-0.0161,-0.0139,-0.0108,-0.0073,-0.0015,0.0011,0.0007,-0.0002,-0.0059,-0.0132,-0.0214,-0.0234,-0.0255,-0.0267,-0.0282,-0.0294,-0.0295,-0.0296,-0.0284,-0.0284,-0.0284,-0.0284,0,-0.021,-0.0211,-0.0201,-0.0178,-0.0158,-0.0127,-0.0092,-0.0059,-0.0011,0.0011,0.0072,0.0046,0.0015,-0.005,-0.0124,-0.0186,-0.024,-0.0266,-0.0264,-0.0275,-0.0288,-0.0299,-0.0299,-0.0288,-0.0287,-0.0287,-0.0287,0,-0.0204,-0.0195,-0.0184,-0.0161,-0.0135,-0.0095,-0.0076,-0.0023,0.0017,0.0087,0.01,0.0079,0.0068,-0.0038,-0.0106,-0.0176,-0.0195,-0.0213,-0.0214,-0.0211,-0.0209,-0.0217,-0.0195,0,0,0,0,0,-0.0198,-0.0187,-0.0165,-0.0136,-0.0108,-0.0092,-0.0043,-0.0022,0.0026,0.0083,0.0103,0.008,0.0003,-0.0035,-0.0107,-0.0162,-0.024,-0.0254,-0.0269,-0.0307,-0.0303,-0.0318,0,0,0,0,0,0,-0.0192,-0.0178,-0.0164,-0.012,-0.0096,-0.0059,-0.0027,0.0005,0.0042,0.0085,0.005,0.0051,-0.0032,0.0052,-0.0108,-0.0134,-0.0156,-0.029,-0.0292,-0.031,-0.0306,-0.0303,-0.0316,0,0,0,0,0]}]]